Index of /20260508/WXO-DD/model_rdps/10km/06/056
Name Last modified Size Description
Parent Directory -
20260508T06Z_MSC_RDPS_AbsoluteVorticity_IsbL-0250_RLatLon0.09_PT056H.grib2 2026-05-08 08:56 738K
20260508T06Z_MSC_RDPS_AbsoluteVorticity_IsbL-0500_RLatLon0.09_PT056H.grib2 2026-05-08 08:56 563K
20260508T06Z_MSC_RDPS_AbsoluteVorticity_IsbL-0700_RLatLon0.09_PT056H.grib2 2026-05-08 08:56 612K
20260508T06Z_MSC_RDPS_AbsoluteVorticity_IsbL-0850_RLatLon0.09_PT056H.grib2 2026-05-08 08:56 783K
20260508T06Z_MSC_RDPS_AirTemp_AGL-120m_RLatLon0.09_PT056H.grib2 2026-05-08 08:56 383K
20260508T06Z_MSC_RDPS_AirTemp_AGL-2m_RLatLon0.09_PT056H.grib2 2026-05-08 08:56 624K
20260508T06Z_MSC_RDPS_AirTemp_AGL-40m_RLatLon0.09_PT056H.grib2 2026-05-08 08:56 395K
20260508T06Z_MSC_RDPS_AirTemp_AGL-80m_RLatLon0.09_PT056H.grib2 2026-05-08 08:56 389K
20260508T06Z_MSC_RDPS_AirTemp_IsbL-0001_RLatLon0.09_PT056H.grib2 2026-05-08 08:56 244K
20260508T06Z_MSC_RDPS_AirTemp_IsbL-0005_RLatLon0.09_PT056H.grib2 2026-05-08 08:56 378K
20260508T06Z_MSC_RDPS_AirTemp_IsbL-0010_RLatLon0.09_PT056H.grib2 2026-05-08 08:56 358K
20260508T06Z_MSC_RDPS_AirTemp_IsbL-0020_RLatLon0.09_PT056H.grib2 2026-05-08 08:56 414K
20260508T06Z_MSC_RDPS_AirTemp_IsbL-0030_RLatLon0.09_PT056H.grib2 2026-05-08 08:56 335K
20260508T06Z_MSC_RDPS_AirTemp_IsbL-0050_RLatLon0.09_PT056H.grib2 2026-05-08 08:56 309K
20260508T06Z_MSC_RDPS_AirTemp_IsbL-0100_RLatLon0.09_PT056H.grib2 2026-05-08 08:56 428K
20260508T06Z_MSC_RDPS_AirTemp_IsbL-0150_RLatLon0.09_PT056H.grib2 2026-05-08 08:56 405K
20260508T06Z_MSC_RDPS_AirTemp_IsbL-0175_RLatLon0.09_PT056H.grib2 2026-05-08 08:56 400K
20260508T06Z_MSC_RDPS_AirTemp_IsbL-0200_RLatLon0.09_PT056H.grib2 2026-05-08 08:56 404K
20260508T06Z_MSC_RDPS_AirTemp_IsbL-0225_RLatLon0.09_PT056H.grib2 2026-05-08 08:56 405K
20260508T06Z_MSC_RDPS_AirTemp_IsbL-0250_RLatLon0.09_PT056H.grib2 2026-05-08 08:56 419K
20260508T06Z_MSC_RDPS_AirTemp_IsbL-0275_RLatLon0.09_PT056H.grib2 2026-05-08 08:56 400K
20260508T06Z_MSC_RDPS_AirTemp_IsbL-0300_RLatLon0.09_PT056H.grib2 2026-05-08 08:56 429K
20260508T06Z_MSC_RDPS_AirTemp_IsbL-0350_RLatLon0.09_PT056H.grib2 2026-05-08 08:56 417K
20260508T06Z_MSC_RDPS_AirTemp_IsbL-0400_RLatLon0.09_PT056H.grib2 2026-05-08 08:56 420K
20260508T06Z_MSC_RDPS_AirTemp_IsbL-0450_RLatLon0.09_PT056H.grib2 2026-05-08 08:56 430K
20260508T06Z_MSC_RDPS_AirTemp_IsbL-0500_RLatLon0.09_PT056H.grib2 2026-05-08 08:56 440K
20260508T06Z_MSC_RDPS_AirTemp_IsbL-0550_RLatLon0.09_PT056H.grib2 2026-05-08 08:56 457K
20260508T06Z_MSC_RDPS_AirTemp_IsbL-0600_RLatLon0.09_PT056H.grib2 2026-05-08 08:56 473K
20260508T06Z_MSC_RDPS_AirTemp_IsbL-0650_RLatLon0.09_PT056H.grib2 2026-05-08 08:56 487K
20260508T06Z_MSC_RDPS_AirTemp_IsbL-0700_RLatLon0.09_PT056H.grib2 2026-05-08 08:56 514K
20260508T06Z_MSC_RDPS_AirTemp_IsbL-0750_RLatLon0.09_PT056H.grib2 2026-05-08 08:56 559K
20260508T06Z_MSC_RDPS_AirTemp_IsbL-0800_RLatLon0.09_PT056H.grib2 2026-05-08 08:56 620K
20260508T06Z_MSC_RDPS_AirTemp_IsbL-0850_RLatLon0.09_PT056H.grib2 2026-05-08 08:56 636K
20260508T06Z_MSC_RDPS_AirTemp_IsbL-0875_RLatLon0.09_PT056H.grib2 2026-05-08 08:56 655K
20260508T06Z_MSC_RDPS_AirTemp_IsbL-0900_RLatLon0.09_PT056H.grib2 2026-05-08 08:56 661K
20260508T06Z_MSC_RDPS_AirTemp_IsbL-0925_RLatLon0.09_PT056H.grib2 2026-05-08 08:56 664K
20260508T06Z_MSC_RDPS_AirTemp_IsbL-0950_RLatLon0.09_PT056H.grib2 2026-05-08 08:56 532K
20260508T06Z_MSC_RDPS_AirTemp_IsbL-0970_RLatLon0.09_PT056H.grib2 2026-05-08 08:56 529K
20260508T06Z_MSC_RDPS_AirTemp_IsbL-0985_RLatLon0.09_PT056H.grib2 2026-05-08 08:56 517K
20260508T06Z_MSC_RDPS_AirTemp_IsbL-1000_RLatLon0.09_PT056H.grib2 2026-05-08 08:56 503K
20260508T06Z_MSC_RDPS_AirTemp_IsbL-1015_RLatLon0.09_PT056H.grib2 2026-05-08 08:56 503K
20260508T06Z_MSC_RDPS_Albedo_Sfc_RLatLon0.09_PT056H.grib2 2026-05-08 08:56 158K
20260508T06Z_MSC_RDPS_CAPE_Sfc_RLatLon0.09_PT056H.grib2 2026-05-08 08:56 1.8M
20260508T06Z_MSC_RDPS_CIN_Sfc_RLatLon0.09_PT056H.grib2 2026-05-08 08:56 1.2M
20260508T06Z_MSC_RDPS_CloudWater_EAtm_RLatLon0.09_PT056H.grib2 2026-05-08 08:56 225K
20260508T06Z_MSC_RDPS_ConvectivePrecip-Accum_Sfc_RLatLon0.09_PT056H.grib2 2026-05-08 08:56 1.2M
20260508T06Z_MSC_RDPS_DewPointDepression_AGL-2m_RLatLon0.09_PT056H.grib2 2026-05-08 08:56 414K
20260508T06Z_MSC_RDPS_DewPointDepression_IsbL-0001_RLatLon0.09_PT056H.grib2 2026-05-08 08:56 193
20260508T06Z_MSC_RDPS_DewPointDepression_IsbL-0005_RLatLon0.09_PT056H.grib2 2026-05-08 08:56 193
20260508T06Z_MSC_RDPS_DewPointDepression_IsbL-0010_RLatLon0.09_PT056H.grib2 2026-05-08 08:56 193
20260508T06Z_MSC_RDPS_DewPointDepression_IsbL-0020_RLatLon0.09_PT056H.grib2 2026-05-08 08:56 193
20260508T06Z_MSC_RDPS_DewPointDepression_IsbL-0030_RLatLon0.09_PT056H.grib2 2026-05-08 08:56 193
20260508T06Z_MSC_RDPS_DewPointDepression_IsbL-0050_RLatLon0.09_PT056H.grib2 2026-05-08 08:56 107K
20260508T06Z_MSC_RDPS_DewPointDepression_IsbL-0100_RLatLon0.09_PT056H.grib2 2026-05-08 08:56 111K
20260508T06Z_MSC_RDPS_DewPointDepression_IsbL-0150_RLatLon0.09_PT056H.grib2 2026-05-08 08:56 143K
20260508T06Z_MSC_RDPS_DewPointDepression_IsbL-0175_RLatLon0.09_PT056H.grib2 2026-05-08 08:56 168K
20260508T06Z_MSC_RDPS_DewPointDepression_IsbL-0200_RLatLon0.09_PT056H.grib2 2026-05-08 08:56 210K
20260508T06Z_MSC_RDPS_DewPointDepression_IsbL-0225_RLatLon0.09_PT056H.grib2 2026-05-08 08:56 258K
20260508T06Z_MSC_RDPS_DewPointDepression_IsbL-0250_RLatLon0.09_PT056H.grib2 2026-05-08 08:56 299K
20260508T06Z_MSC_RDPS_DewPointDepression_IsbL-0275_RLatLon0.09_PT056H.grib2 2026-05-08 08:56 305K
20260508T06Z_MSC_RDPS_DewPointDepression_IsbL-0300_RLatLon0.09_PT056H.grib2 2026-05-08 08:56 321K
20260508T06Z_MSC_RDPS_DewPointDepression_IsbL-0350_RLatLon0.09_PT056H.grib2 2026-05-08 08:56 324K
20260508T06Z_MSC_RDPS_DewPointDepression_IsbL-0400_RLatLon0.09_PT056H.grib2 2026-05-08 08:56 332K
20260508T06Z_MSC_RDPS_DewPointDepression_IsbL-0450_RLatLon0.09_PT056H.grib2 2026-05-08 08:56 341K
20260508T06Z_MSC_RDPS_DewPointDepression_IsbL-0500_RLatLon0.09_PT056H.grib2 2026-05-08 08:56 344K
20260508T06Z_MSC_RDPS_DewPointDepression_IsbL-0550_RLatLon0.09_PT056H.grib2 2026-05-08 08:56 354K
20260508T06Z_MSC_RDPS_DewPointDepression_IsbL-0600_RLatLon0.09_PT056H.grib2 2026-05-08 08:56 363K
20260508T06Z_MSC_RDPS_DewPointDepression_IsbL-0650_RLatLon0.09_PT056H.grib2 2026-05-08 08:56 372K
20260508T06Z_MSC_RDPS_DewPointDepression_IsbL-0700_RLatLon0.09_PT056H.grib2 2026-05-08 08:56 385K
20260508T06Z_MSC_RDPS_DewPointDepression_IsbL-0750_RLatLon0.09_PT056H.grib2 2026-05-08 08:56 403K
20260508T06Z_MSC_RDPS_DewPointDepression_IsbL-0800_RLatLon0.09_PT056H.grib2 2026-05-08 08:56 447K
20260508T06Z_MSC_RDPS_DewPointDepression_IsbL-0850_RLatLon0.09_PT056H.grib2 2026-05-08 08:56 473K
20260508T06Z_MSC_RDPS_DewPointDepression_IsbL-0875_RLatLon0.09_PT056H.grib2 2026-05-08 08:56 468K
20260508T06Z_MSC_RDPS_DewPointDepression_IsbL-0900_RLatLon0.09_PT056H.grib2 2026-05-08 08:56 455K
20260508T06Z_MSC_RDPS_DewPointDepression_IsbL-0925_RLatLon0.09_PT056H.grib2 2026-05-08 08:56 446K
20260508T06Z_MSC_RDPS_DewPointDepression_IsbL-0950_RLatLon0.09_PT056H.grib2 2026-05-08 08:56 440K
20260508T06Z_MSC_RDPS_DewPointDepression_IsbL-0970_RLatLon0.09_PT056H.grib2 2026-05-08 08:56 438K
20260508T06Z_MSC_RDPS_DewPointDepression_IsbL-0985_RLatLon0.09_PT056H.grib2 2026-05-08 08:56 435K
20260508T06Z_MSC_RDPS_DewPointDepression_IsbL-1000_RLatLon0.09_PT056H.grib2 2026-05-08 08:56 430K
20260508T06Z_MSC_RDPS_DewPointDepression_IsbL-1015_RLatLon0.09_PT056H.grib2 2026-05-08 08:56 422K
20260508T06Z_MSC_RDPS_DewPoint_AGL-2m_RLatLon0.09_PT056H.grib2 2026-05-08 08:56 395K
20260508T06Z_MSC_RDPS_DownwardLongwaveRadiationFlux-Accum_Sfc_RLatLon0.09_PT056H.grib2 2026-05-08 08:56 390K
20260508T06Z_MSC_RDPS_DownwardShortwaveRadiationFlux-Accum_NTAtm_RLatLon0.09_PT056H.grib2 2026-05-08 08:56 143K
20260508T06Z_MSC_RDPS_DownwardShortwaveRadiationFlux-Accum_Sfc_RLatLon0.09_PT056H.grib2 2026-05-08 08:56 588K
20260508T06Z_MSC_RDPS_FreezingRain-Accum1h_Sfc_RLatLon0.09_PT056H.grib2 2026-05-08 08:56 60K
20260508T06Z_MSC_RDPS_FreezingRain-Accum_Sfc_RLatLon0.09_PT056H.grib2 2026-05-08 08:56 158K
20260508T06Z_MSC_RDPS_GeopotentialHeight_IsbL-0001_RLatLon0.09_PT056H.grib2 2026-05-08 08:56 245K
20260508T06Z_MSC_RDPS_GeopotentialHeight_IsbL-0005_RLatLon0.09_PT056H.grib2 2026-05-08 08:56 338K
20260508T06Z_MSC_RDPS_GeopotentialHeight_IsbL-0010_RLatLon0.09_PT056H.grib2 2026-05-08 08:56 307K
20260508T06Z_MSC_RDPS_GeopotentialHeight_IsbL-0020_RLatLon0.09_PT056H.grib2 2026-05-08 08:56 306K
20260508T06Z_MSC_RDPS_GeopotentialHeight_IsbL-0030_RLatLon0.09_PT056H.grib2 2026-05-08 08:56 307K
20260508T06Z_MSC_RDPS_GeopotentialHeight_IsbL-0050_RLatLon0.09_PT056H.grib2 2026-05-08 08:56 308K
20260508T06Z_MSC_RDPS_GeopotentialHeight_IsbL-0100_RLatLon0.09_PT056H.grib2 2026-05-08 08:56 285K
20260508T06Z_MSC_RDPS_GeopotentialHeight_IsbL-0150_RLatLon0.09_PT056H.grib2 2026-05-08 08:56 226K
20260508T06Z_MSC_RDPS_GeopotentialHeight_IsbL-0175_RLatLon0.09_PT056H.grib2 2026-05-08 08:56 228K
20260508T06Z_MSC_RDPS_GeopotentialHeight_IsbL-0200_RLatLon0.09_PT056H.grib2 2026-05-08 08:56 230K
20260508T06Z_MSC_RDPS_GeopotentialHeight_IsbL-0225_RLatLon0.09_PT056H.grib2 2026-05-08 08:56 231K
20260508T06Z_MSC_RDPS_GeopotentialHeight_IsbL-0250_RLatLon0.09_PT056H.grib2 2026-05-08 08:56 232K
20260508T06Z_MSC_RDPS_GeopotentialHeight_IsbL-0275_RLatLon0.09_PT056H.grib2 2026-05-08 08:56 233K
20260508T06Z_MSC_RDPS_GeopotentialHeight_IsbL-0300_RLatLon0.09_PT056H.grib2 2026-05-08 08:56 233K
20260508T06Z_MSC_RDPS_GeopotentialHeight_IsbL-0350_RLatLon0.09_PT056H.grib2 2026-05-08 08:56 229K
20260508T06Z_MSC_RDPS_GeopotentialHeight_IsbL-0400_RLatLon0.09_PT056H.grib2 2026-05-08 08:56 225K
20260508T06Z_MSC_RDPS_GeopotentialHeight_IsbL-0450_RLatLon0.09_PT056H.grib2 2026-05-08 08:56 293K
20260508T06Z_MSC_RDPS_GeopotentialHeight_IsbL-0500_RLatLon0.09_PT056H.grib2 2026-05-08 08:56 288K
20260508T06Z_MSC_RDPS_GeopotentialHeight_IsbL-0550_RLatLon0.09_PT056H.grib2 2026-05-08 08:56 284K
20260508T06Z_MSC_RDPS_GeopotentialHeight_IsbL-0600_RLatLon0.09_PT056H.grib2 2026-05-08 08:56 279K
20260508T06Z_MSC_RDPS_GeopotentialHeight_IsbL-0650_RLatLon0.09_PT056H.grib2 2026-05-08 08:56 249K
20260508T06Z_MSC_RDPS_GeopotentialHeight_IsbL-0700_RLatLon0.09_PT056H.grib2 2026-05-08 08:56 249K
20260508T06Z_MSC_RDPS_GeopotentialHeight_IsbL-0750_RLatLon0.09_PT056H.grib2 2026-05-08 08:56 253K
20260508T06Z_MSC_RDPS_GeopotentialHeight_IsbL-0800_RLatLon0.09_PT056H.grib2 2026-05-08 08:56 345K
20260508T06Z_MSC_RDPS_GeopotentialHeight_IsbL-0850_RLatLon0.09_PT056H.grib2 2026-05-08 08:56 356K
20260508T06Z_MSC_RDPS_GeopotentialHeight_IsbL-0875_RLatLon0.09_PT056H.grib2 2026-05-08 08:56 360K
20260508T06Z_MSC_RDPS_GeopotentialHeight_IsbL-0900_RLatLon0.09_PT056H.grib2 2026-05-08 08:56 363K
20260508T06Z_MSC_RDPS_GeopotentialHeight_IsbL-0925_RLatLon0.09_PT056H.grib2 2026-05-08 08:56 367K
20260508T06Z_MSC_RDPS_GeopotentialHeight_IsbL-0950_RLatLon0.09_PT056H.grib2 2026-05-08 08:56 370K
20260508T06Z_MSC_RDPS_GeopotentialHeight_IsbL-0970_RLatLon0.09_PT056H.grib2 2026-05-08 08:56 376K
20260508T06Z_MSC_RDPS_GeopotentialHeight_IsbL-0985_RLatLon0.09_PT056H.grib2 2026-05-08 08:56 385K
20260508T06Z_MSC_RDPS_GeopotentialHeight_IsbL-1000_RLatLon0.09_PT056H.grib2 2026-05-08 08:56 398K
20260508T06Z_MSC_RDPS_GeopotentialHeight_IsbL-1015_RLatLon0.09_PT056H.grib2 2026-05-08 08:56 415K
20260508T06Z_MSC_RDPS_HighLowPressure_MSL_RLatLon0.09_PT056H.json 2026-05-08 08:48 19K
20260508T06Z_MSC_RDPS_Humidex_Sfc_RLatLon0.09_PT056H.grib2 2026-05-08 08:56 2.4M
20260508T06Z_MSC_RDPS_IcePellets-Accum1h_Sfc_RLatLon0.09_PT056H.grib2 2026-05-08 08:56 15K
20260508T06Z_MSC_RDPS_IcePellets-Accum_Sfc_RLatLon0.09_PT056H.grib2 2026-05-08 08:56 27K
20260508T06Z_MSC_RDPS_KIndex_Sfc_RLatLon0.09_PT056H.grib2 2026-05-08 08:56 2.5M
20260508T06Z_MSC_RDPS_LatentHeatNetFlux_Sfc_RLatLon0.09_PT056H.grib2 2026-05-08 08:56 377K
20260508T06Z_MSC_RDPS_LiftedIndex-MU-VT_IsbL-0500_RLatLon0.09_PT056H.grib2 2026-05-08 08:56 2.4M
20260508T06Z_MSC_RDPS_NetLongwaveRadiationFlux-Accum_Sfc_RLatLon0.09_PT056H.grib2 2026-05-08 08:56 577K
20260508T06Z_MSC_RDPS_NetShortwaveRadiationFlux-Accum_Sfc_RLatLon0.09_PT056H.grib2 2026-05-08 08:56 584K
20260508T06Z_MSC_RDPS_PlanetaryBoundaryLayerHeight_Sfc_RLatLon0.09_PT056H.grib2 2026-05-08 08:56 1.2M
20260508T06Z_MSC_RDPS_Precip-Accum1h_Sfc_RLatLon0.09_PT056H.grib2 2026-05-08 08:56 1.3M
20260508T06Z_MSC_RDPS_Precip-Accum_Sfc_RLatLon0.09_PT056H.grib2 2026-05-08 08:56 2.0M
20260508T06Z_MSC_RDPS_PrecipRate_Sfc_RLatLon0.09_PT056H.grib2 2026-05-08 08:56 180K
20260508T06Z_MSC_RDPS_PrecipType-Instant_Sfc_RLatLon0.09_PT056H.grib2 2026-05-08 08:56 587K
20260508T06Z_MSC_RDPS_Pressure-Trend3h_Sfc_RLatLon0.09_PT056H.grib2 2026-05-08 08:56 1.2M
20260508T06Z_MSC_RDPS_Pressure_MSL_RLatLon0.09_PT056H.grib2 2026-05-08 08:56 327K
20260508T06Z_MSC_RDPS_Pressure_PVU-1.5_RLatLon0.09_PT056H.grib2 2026-05-08 08:56 2.3M
20260508T06Z_MSC_RDPS_Pressure_PVU-1_RLatLon0.09_PT056H.grib2 2026-05-08 08:56 2.4M
20260508T06Z_MSC_RDPS_Pressure_PVU-2_RLatLon0.09_PT056H.grib2 2026-05-08 08:56 2.4M
20260508T06Z_MSC_RDPS_Pressure_Sfc_RLatLon0.09_PT056H.grib2 2026-05-08 08:56 499K
20260508T06Z_MSC_RDPS_RadiativeTemp_Sfc_RLatLon0.09_PT056H.grib2 2026-05-08 08:56 310K
20260508T06Z_MSC_RDPS_Rain-Accum1h_Sfc_RLatLon0.09_PT056H.grib2 2026-05-08 08:56 652K
20260508T06Z_MSC_RDPS_Rain-Accum_Sfc_RLatLon0.09_PT056H.grib2 2026-05-08 08:56 1.8M
20260508T06Z_MSC_RDPS_RelativeHumidity_AGL-2m_RLatLon0.09_PT056H.grib2 2026-05-08 08:56 1.0M
20260508T06Z_MSC_RDPS_RelativeHumidity_IsbL-0010_RLatLon0.09_PT056H.grib2 2026-05-08 08:56 587K
20260508T06Z_MSC_RDPS_RelativeHumidity_IsbL-0020_RLatLon0.09_PT056H.grib2 2026-05-08 08:56 634K
20260508T06Z_MSC_RDPS_RelativeHumidity_IsbL-0030_RLatLon0.09_PT056H.grib2 2026-05-08 08:56 628K
20260508T06Z_MSC_RDPS_RelativeHumidity_IsbL-0050_RLatLon0.09_PT056H.grib2 2026-05-08 08:56 353K
20260508T06Z_MSC_RDPS_RelativeHumidity_IsbL-0100_RLatLon0.09_PT056H.grib2 2026-05-08 08:56 278K
20260508T06Z_MSC_RDPS_RelativeHumidity_IsbL-0150_RLatLon0.09_PT056H.grib2 2026-05-08 08:56 411K
20260508T06Z_MSC_RDPS_RelativeHumidity_IsbL-0175_RLatLon0.09_PT056H.grib2 2026-05-08 08:56 464K
20260508T06Z_MSC_RDPS_RelativeHumidity_IsbL-0200_RLatLon0.09_PT056H.grib2 2026-05-08 08:56 532K
20260508T06Z_MSC_RDPS_RelativeHumidity_IsbL-0225_RLatLon0.09_PT056H.grib2 2026-05-08 08:56 605K
20260508T06Z_MSC_RDPS_RelativeHumidity_IsbL-0250_RLatLon0.09_PT056H.grib2 2026-05-08 08:56 684K
20260508T06Z_MSC_RDPS_RelativeHumidity_IsbL-0275_RLatLon0.09_PT056H.grib2 2026-05-08 08:56 713K
20260508T06Z_MSC_RDPS_RelativeHumidity_IsbL-0300_RLatLon0.09_PT056H.grib2 2026-05-08 08:56 750K
20260508T06Z_MSC_RDPS_RelativeHumidity_IsbL-0350_RLatLon0.09_PT056H.grib2 2026-05-08 08:56 763K
20260508T06Z_MSC_RDPS_RelativeHumidity_IsbL-0400_RLatLon0.09_PT056H.grib2 2026-05-08 08:56 781K
20260508T06Z_MSC_RDPS_RelativeHumidity_IsbL-0450_RLatLon0.09_PT056H.grib2 2026-05-08 08:56 795K
20260508T06Z_MSC_RDPS_RelativeHumidity_IsbL-0500_RLatLon0.09_PT056H.grib2 2026-05-08 08:56 800K
20260508T06Z_MSC_RDPS_RelativeHumidity_IsbL-0550_RLatLon0.09_PT056H.grib2 2026-05-08 08:56 812K
20260508T06Z_MSC_RDPS_RelativeHumidity_IsbL-0600_RLatLon0.09_PT056H.grib2 2026-05-08 08:56 827K
20260508T06Z_MSC_RDPS_RelativeHumidity_IsbL-0650_RLatLon0.09_PT056H.grib2 2026-05-08 08:56 841K
20260508T06Z_MSC_RDPS_RelativeHumidity_IsbL-0700_RLatLon0.09_PT056H.grib2 2026-05-08 08:56 876K
20260508T06Z_MSC_RDPS_RelativeHumidity_IsbL-0750_RLatLon0.09_PT056H.grib2 2026-05-08 08:56 920K
20260508T06Z_MSC_RDPS_RelativeHumidity_IsbL-0800_RLatLon0.09_PT056H.grib2 2026-05-08 08:56 1.0M
20260508T06Z_MSC_RDPS_RelativeHumidity_IsbL-0850_RLatLon0.09_PT056H.grib2 2026-05-08 08:56 1.0M
20260508T06Z_MSC_RDPS_RelativeHumidity_IsbL-0875_RLatLon0.09_PT056H.grib2 2026-05-08 08:56 1.1M
20260508T06Z_MSC_RDPS_RelativeHumidity_IsbL-0900_RLatLon0.09_PT056H.grib2 2026-05-08 08:56 1.1M
20260508T06Z_MSC_RDPS_RelativeHumidity_IsbL-0925_RLatLon0.09_PT056H.grib2 2026-05-08 08:56 1.1M
20260508T06Z_MSC_RDPS_RelativeHumidity_IsbL-0950_RLatLon0.09_PT056H.grib2 2026-05-08 08:56 1.1M
20260508T06Z_MSC_RDPS_RelativeHumidity_IsbL-0970_RLatLon0.09_PT056H.grib2 2026-05-08 08:56 1.1M
20260508T06Z_MSC_RDPS_RelativeHumidity_IsbL-0985_RLatLon0.09_PT056H.grib2 2026-05-08 08:56 1.0M
20260508T06Z_MSC_RDPS_RelativeHumidity_IsbL-1000_RLatLon0.09_PT056H.grib2 2026-05-08 08:56 1.0M
20260508T06Z_MSC_RDPS_RelativeHumidity_IsbL-1015_RLatLon0.09_PT056H.grib2 2026-05-08 08:56 1.0M
20260508T06Z_MSC_RDPS_Runoff-Accum_Sfc_RLatLon0.09_PT056H.grib2 2026-05-08 08:56 38K
20260508T06Z_MSC_RDPS_SWEATIndex_Sfc_RLatLon0.09_PT056H.grib2 2026-05-08 08:56 2.5M
20260508T06Z_MSC_RDPS_SeeingIndex_EAtm_RLatLon0.09_PT056H.grib2 2026-05-08 08:56 1.1M
20260508T06Z_MSC_RDPS_SensibleHeatNetFlux_Sfc_RLatLon0.09_PT056H.grib2 2026-05-08 08:56 257K
20260508T06Z_MSC_RDPS_ShowalterIndex_IsbL-0500_RLatLon0.09_PT056H.grib2 2026-05-08 08:56 2.6M
20260508T06Z_MSC_RDPS_SkyTransparencyIndex_EAtm_RLatLon0.09_PT056H.grib2 2026-05-08 08:56 687K
20260508T06Z_MSC_RDPS_Snow-Accum1h_Sfc_RLatLon0.09_PT056H.grib2 2026-05-08 08:56 361K
20260508T06Z_MSC_RDPS_Snow-Accum_Sfc_RLatLon0.09_PT056H.grib2 2026-05-08 08:56 655K
20260508T06Z_MSC_RDPS_SnowDensity_Sfc_RLatLon0.09_PT056H.grib2 2026-05-08 08:56 171K
20260508T06Z_MSC_RDPS_SnowDepth_Sfc_RLatLon0.09_PT056H.grib2 2026-05-08 08:56 622K
20260508T06Z_MSC_RDPS_SoilTemp_DBS-0to10cm_RLatLon0.09_PT056H.grib2 2026-05-08 08:56 238K
20260508T06Z_MSC_RDPS_SoilTemp_Sfc_RLatLon0.09_PT056H.grib2 2026-05-08 08:56 286K
20260508T06Z_MSC_RDPS_SoilVolumetricIceContent_Sfc_RLatLon0.09_PT056H.grib2 2026-05-08 08:56 143K
20260508T06Z_MSC_RDPS_SoilVolumetricWaterContent_DBS-0to10cm_RLatLon0.09_PT056H.grib2 2026-05-08 08:56 291K
20260508T06Z_MSC_RDPS_SoilVolumetricWaterContent_DBS-0to1cm_RLatLon0.09_PT056H.grib2 2026-05-08 08:56 343K
20260508T06Z_MSC_RDPS_SpecificHumidity_AGL-120m_RLatLon0.09_PT056H.grib2 2026-05-08 08:56 506K
20260508T06Z_MSC_RDPS_SpecificHumidity_AGL-2m_RLatLon0.09_PT056H.grib2 2026-05-08 08:56 675K
20260508T06Z_MSC_RDPS_SpecificHumidity_AGL-40m_RLatLon0.09_PT056H.grib2 2026-05-08 08:56 512K
20260508T06Z_MSC_RDPS_SpecificHumidity_AGL-80m_RLatLon0.09_PT056H.grib2 2026-05-08 08:56 508K
20260508T06Z_MSC_RDPS_SpecificHumidity_IsbL-0001_RLatLon0.09_PT056H.grib2 2026-05-08 08:56 360K
20260508T06Z_MSC_RDPS_SpecificHumidity_IsbL-0005_RLatLon0.09_PT056H.grib2 2026-05-08 08:56 368K
20260508T06Z_MSC_RDPS_SpecificHumidity_IsbL-0010_RLatLon0.09_PT056H.grib2 2026-05-08 08:56 396K
20260508T06Z_MSC_RDPS_SpecificHumidity_IsbL-0020_RLatLon0.09_PT056H.grib2 2026-05-08 08:56 492K
20260508T06Z_MSC_RDPS_SpecificHumidity_IsbL-0030_RLatLon0.09_PT056H.grib2 2026-05-08 08:56 371K
20260508T06Z_MSC_RDPS_SpecificHumidity_IsbL-0050_RLatLon0.09_PT056H.grib2 2026-05-08 08:56 481K
20260508T06Z_MSC_RDPS_SpecificHumidity_IsbL-0100_RLatLon0.09_PT056H.grib2 2026-05-08 08:56 407K
20260508T06Z_MSC_RDPS_SpecificHumidity_IsbL-0150_RLatLon0.09_PT056H.grib2 2026-05-08 08:56 449K
20260508T06Z_MSC_RDPS_SpecificHumidity_IsbL-0175_RLatLon0.09_PT056H.grib2 2026-05-08 08:56 426K
20260508T06Z_MSC_RDPS_SpecificHumidity_IsbL-0200_RLatLon0.09_PT056H.grib2 2026-05-08 08:56 442K
20260508T06Z_MSC_RDPS_SpecificHumidity_IsbL-0225_RLatLon0.09_PT056H.grib2 2026-05-08 08:56 451K
20260508T06Z_MSC_RDPS_SpecificHumidity_IsbL-0250_RLatLon0.09_PT056H.grib2 2026-05-08 08:56 558K
20260508T06Z_MSC_RDPS_SpecificHumidity_IsbL-0275_RLatLon0.09_PT056H.grib2 2026-05-08 08:56 474K
20260508T06Z_MSC_RDPS_SpecificHumidity_IsbL-0300_RLatLon0.09_PT056H.grib2 2026-05-08 08:56 445K
20260508T06Z_MSC_RDPS_SpecificHumidity_IsbL-0350_RLatLon0.09_PT056H.grib2 2026-05-08 08:56 561K
20260508T06Z_MSC_RDPS_SpecificHumidity_IsbL-0400_RLatLon0.09_PT056H.grib2 2026-05-08 08:56 523K
20260508T06Z_MSC_RDPS_SpecificHumidity_IsbL-0450_RLatLon0.09_PT056H.grib2 2026-05-08 08:56 581K
20260508T06Z_MSC_RDPS_SpecificHumidity_IsbL-0500_RLatLon0.09_PT056H.grib2 2026-05-08 08:56 517K
20260508T06Z_MSC_RDPS_SpecificHumidity_IsbL-0550_RLatLon0.09_PT056H.grib2 2026-05-08 08:56 587K
20260508T06Z_MSC_RDPS_SpecificHumidity_IsbL-0600_RLatLon0.09_PT056H.grib2 2026-05-08 08:56 636K
20260508T06Z_MSC_RDPS_SpecificHumidity_IsbL-0650_RLatLon0.09_PT056H.grib2 2026-05-08 08:56 553K
20260508T06Z_MSC_RDPS_SpecificHumidity_IsbL-0700_RLatLon0.09_PT056H.grib2 2026-05-08 08:56 601K
20260508T06Z_MSC_RDPS_SpecificHumidity_IsbL-0750_RLatLon0.09_PT056H.grib2 2026-05-08 08:56 660K
20260508T06Z_MSC_RDPS_SpecificHumidity_IsbL-0800_RLatLon0.09_PT056H.grib2 2026-05-08 08:56 744K
20260508T06Z_MSC_RDPS_SpecificHumidity_IsbL-0850_RLatLon0.09_PT056H.grib2 2026-05-08 08:56 821K
20260508T06Z_MSC_RDPS_SpecificHumidity_IsbL-0875_RLatLon0.09_PT056H.grib2 2026-05-08 08:56 840K
20260508T06Z_MSC_RDPS_SpecificHumidity_IsbL-0900_RLatLon0.09_PT056H.grib2 2026-05-08 08:56 848K
20260508T06Z_MSC_RDPS_SpecificHumidity_IsbL-0925_RLatLon0.09_PT056H.grib2 2026-05-08 08:56 853K
20260508T06Z_MSC_RDPS_SpecificHumidity_IsbL-0950_RLatLon0.09_PT056H.grib2 2026-05-08 08:56 713K
20260508T06Z_MSC_RDPS_SpecificHumidity_IsbL-0970_RLatLon0.09_PT056H.grib2 2026-05-08 08:56 712K
20260508T06Z_MSC_RDPS_SpecificHumidity_IsbL-0985_RLatLon0.09_PT056H.grib2 2026-05-08 08:56 706K
20260508T06Z_MSC_RDPS_SpecificHumidity_IsbL-1000_RLatLon0.09_PT056H.grib2 2026-05-08 08:56 701K
20260508T06Z_MSC_RDPS_SpecificHumidity_IsbL-1015_RLatLon0.09_PT056H.grib2 2026-05-08 08:56 691K
20260508T06Z_MSC_RDPS_SpecificHumidity_Sfc_RLatLon0.09_PT056H.grib2 2026-05-08 08:56 318K
20260508T06Z_MSC_RDPS_StormRelativeHelicity_EtaL-10000_RLatLon0.09_PT056H.grib2 2026-05-08 08:56 1.1M
20260508T06Z_MSC_RDPS_StormSeverityIndex_EtaL-10000_RLatLon0.09_PT056H.grib2 2026-05-08 08:56 1.2M
20260508T06Z_MSC_RDPS_Thickness_IsbL-0850to0700_RLatLon0.09_PT056H.grib2 2026-05-08 08:56 247K
20260508T06Z_MSC_RDPS_Thickness_IsbL-1000to0500_RLatLon0.09_PT056H.grib2 2026-05-08 08:56 195K
20260508T06Z_MSC_RDPS_Thickness_IsbL-1000to0850_RLatLon0.09_PT056H.grib2 2026-05-08 08:56 263K
20260508T06Z_MSC_RDPS_TotalCloudCover_Sfc_RLatLon0.09_PT056H.grib2 2026-05-08 08:56 668K
20260508T06Z_MSC_RDPS_TotalTotalsIndex_Sfc_RLatLon0.09_PT056H.grib2 2026-05-08 08:56 2.5M
20260508T06Z_MSC_RDPS_UVIndex-ClearSky_Sfc_RLatLon0.09_PT056H.grib2 2026-05-08 08:56 215K
20260508T06Z_MSC_RDPS_UVIndex_Sfc_RLatLon0.09_PT056H.grib2 2026-05-08 08:56 487K
20260508T06Z_MSC_RDPS_UpwardLongwaveRadiationFlux_NTAtm_RLatLon0.09_PT056H.grib2 2026-05-08 08:56 484K
20260508T06Z_MSC_RDPS_UpwardShortwaveRadiationFlux_NTAtm_RLatLon0.09_PT056H.grib2 2026-05-08 08:56 431K
20260508T06Z_MSC_RDPS_VerticalVelocity_IsbL-0250_RLatLon0.09_PT056H.grib2 2026-05-08 08:56 540K
20260508T06Z_MSC_RDPS_VerticalVelocity_IsbL-0500_RLatLon0.09_PT056H.grib2 2026-05-08 08:56 532K
20260508T06Z_MSC_RDPS_VerticalVelocity_IsbL-0700_RLatLon0.09_PT056H.grib2 2026-05-08 08:56 607K
20260508T06Z_MSC_RDPS_VerticalVelocity_IsbL-0850_RLatLon0.09_PT056H.grib2 2026-05-08 08:56 707K
20260508T06Z_MSC_RDPS_VerticalWindShear_EtaL-6500_RLatLon0.09_PT056H.grib2 2026-05-08 08:56 1.2M
20260508T06Z_MSC_RDPS_WindChill_Sfc_RLatLon0.09_PT056H.grib2 2026-05-08 08:56 1.2M
20260508T06Z_MSC_RDPS_WindDir_AGL-10m_RLatLon0.09_PT056H.grib2 2026-05-08 08:56 971K
20260508T06Z_MSC_RDPS_WindDir_AGL-120m_RLatLon0.09_PT056H.grib2 2026-05-08 08:56 613K
20260508T06Z_MSC_RDPS_WindDir_AGL-40m_RLatLon0.09_PT056H.grib2 2026-05-08 08:56 640K
20260508T06Z_MSC_RDPS_WindDir_AGL-80m_RLatLon0.09_PT056H.grib2 2026-05-08 08:56 624K
20260508T06Z_MSC_RDPS_WindDir_IsbL-0001_RLatLon0.09_PT056H.grib2 2026-05-08 08:56 268K
20260508T06Z_MSC_RDPS_WindDir_IsbL-0005_RLatLon0.09_PT056H.grib2 2026-05-08 08:56 381K
20260508T06Z_MSC_RDPS_WindDir_IsbL-0010_RLatLon0.09_PT056H.grib2 2026-05-08 08:56 378K
20260508T06Z_MSC_RDPS_WindDir_IsbL-0020_RLatLon0.09_PT056H.grib2 2026-05-08 08:56 433K
20260508T06Z_MSC_RDPS_WindDir_IsbL-0030_RLatLon0.09_PT056H.grib2 2026-05-08 08:56 416K
20260508T06Z_MSC_RDPS_WindDir_IsbL-0050_RLatLon0.09_PT056H.grib2 2026-05-08 08:56 445K
20260508T06Z_MSC_RDPS_WindDir_IsbL-0100_RLatLon0.09_PT056H.grib2 2026-05-08 08:56 418K
20260508T06Z_MSC_RDPS_WindDir_IsbL-0150_RLatLon0.09_PT056H.grib2 2026-05-08 08:56 414K
20260508T06Z_MSC_RDPS_WindDir_IsbL-0175_RLatLon0.09_PT056H.grib2 2026-05-08 08:56 434K
20260508T06Z_MSC_RDPS_WindDir_IsbL-0200_RLatLon0.09_PT056H.grib2 2026-05-08 08:56 450K
20260508T06Z_MSC_RDPS_WindDir_IsbL-0225_RLatLon0.09_PT056H.grib2 2026-05-08 08:56 464K
20260508T06Z_MSC_RDPS_WindDir_IsbL-0250_RLatLon0.09_PT056H.grib2 2026-05-08 08:56 463K
20260508T06Z_MSC_RDPS_WindDir_IsbL-0275_RLatLon0.09_PT056H.grib2 2026-05-08 08:56 488K
20260508T06Z_MSC_RDPS_WindDir_IsbL-0300_RLatLon0.09_PT056H.grib2 2026-05-08 08:56 482K
20260508T06Z_MSC_RDPS_WindDir_IsbL-0350_RLatLon0.09_PT056H.grib2 2026-05-08 08:56 499K
20260508T06Z_MSC_RDPS_WindDir_IsbL-0400_RLatLon0.09_PT056H.grib2 2026-05-08 08:56 525K
20260508T06Z_MSC_RDPS_WindDir_IsbL-0450_RLatLon0.09_PT056H.grib2 2026-05-08 08:56 546K
20260508T06Z_MSC_RDPS_WindDir_IsbL-0500_RLatLon0.09_PT056H.grib2 2026-05-08 08:56 559K
20260508T06Z_MSC_RDPS_WindDir_IsbL-0550_RLatLon0.09_PT056H.grib2 2026-05-08 08:56 576K
20260508T06Z_MSC_RDPS_WindDir_IsbL-0600_RLatLon0.09_PT056H.grib2 2026-05-08 08:56 594K
20260508T06Z_MSC_RDPS_WindDir_IsbL-0650_RLatLon0.09_PT056H.grib2 2026-05-08 08:56 624K
20260508T06Z_MSC_RDPS_WindDir_IsbL-0700_RLatLon0.09_PT056H.grib2 2026-05-08 08:56 662K
20260508T06Z_MSC_RDPS_WindDir_IsbL-0750_RLatLon0.09_PT056H.grib2 2026-05-08 08:56 712K
20260508T06Z_MSC_RDPS_WindDir_IsbL-0800_RLatLon0.09_PT056H.grib2 2026-05-08 08:56 785K
20260508T06Z_MSC_RDPS_WindDir_IsbL-0850_RLatLon0.09_PT056H.grib2 2026-05-08 08:56 855K
20260508T06Z_MSC_RDPS_WindDir_IsbL-0875_RLatLon0.09_PT056H.grib2 2026-05-08 08:56 883K
20260508T06Z_MSC_RDPS_WindDir_IsbL-0900_RLatLon0.09_PT056H.grib2 2026-05-08 08:56 905K
20260508T06Z_MSC_RDPS_WindDir_IsbL-0925_RLatLon0.09_PT056H.grib2 2026-05-08 08:56 915K
20260508T06Z_MSC_RDPS_WindDir_IsbL-0950_RLatLon0.09_PT056H.grib2 2026-05-08 08:56 919K
20260508T06Z_MSC_RDPS_WindDir_IsbL-0970_RLatLon0.09_PT056H.grib2 2026-05-08 08:56 920K
20260508T06Z_MSC_RDPS_WindDir_IsbL-0985_RLatLon0.09_PT056H.grib2 2026-05-08 08:56 930K
20260508T06Z_MSC_RDPS_WindDir_IsbL-1000_RLatLon0.09_PT056H.grib2 2026-05-08 08:56 947K
20260508T06Z_MSC_RDPS_WindDir_IsbL-1015_RLatLon0.09_PT056H.grib2 2026-05-08 08:56 963K
20260508T06Z_MSC_RDPS_WindGust-Max_AGL-10m_RLatLon0.09_PT056H.grib2 2026-05-08 08:56 1.0M
20260508T06Z_MSC_RDPS_WindGust-Min_AGL-10m_RLatLon0.09_PT056H.grib2 2026-05-08 08:56 1.0M
20260508T06Z_MSC_RDPS_WindGust_AGL-10m_RLatLon0.09_PT056H.grib2 2026-05-08 08:56 1.0M
20260508T06Z_MSC_RDPS_WindSpeed_AGL-10m_RLatLon0.09_PT056H.grib2 2026-05-08 08:56 846K
20260508T06Z_MSC_RDPS_WindSpeed_AGL-120m_RLatLon0.09_PT056H.grib2 2026-05-08 08:56 547K
20260508T06Z_MSC_RDPS_WindSpeed_AGL-40m_RLatLon0.09_PT056H.grib2 2026-05-08 08:56 677K
20260508T06Z_MSC_RDPS_WindSpeed_AGL-80m_RLatLon0.09_PT056H.grib2 2026-05-08 08:56 546K
20260508T06Z_MSC_RDPS_WindSpeed_IsbL-0001_RLatLon0.09_PT056H.grib2 2026-05-08 08:56 255K
20260508T06Z_MSC_RDPS_WindSpeed_IsbL-0005_RLatLon0.09_PT056H.grib2 2026-05-08 08:56 382K
20260508T06Z_MSC_RDPS_WindSpeed_IsbL-0010_RLatLon0.09_PT056H.grib2 2026-05-08 08:56 397K
20260508T06Z_MSC_RDPS_WindSpeed_IsbL-0020_RLatLon0.09_PT056H.grib2 2026-05-08 08:56 325K
20260508T06Z_MSC_RDPS_WindSpeed_IsbL-0030_RLatLon0.09_PT056H.grib2 2026-05-08 08:56 320K
20260508T06Z_MSC_RDPS_WindSpeed_IsbL-0050_RLatLon0.09_PT056H.grib2 2026-05-08 08:56 345K
20260508T06Z_MSC_RDPS_WindSpeed_IsbL-0100_RLatLon0.09_PT056H.grib2 2026-05-08 08:56 474K
20260508T06Z_MSC_RDPS_WindSpeed_IsbL-0150_RLatLon0.09_PT056H.grib2 2026-05-08 08:56 372K
20260508T06Z_MSC_RDPS_WindSpeed_IsbL-0175_RLatLon0.09_PT056H.grib2 2026-05-08 08:56 396K
20260508T06Z_MSC_RDPS_WindSpeed_IsbL-0200_RLatLon0.09_PT056H.grib2 2026-05-08 08:56 431K
20260508T06Z_MSC_RDPS_WindSpeed_IsbL-0225_RLatLon0.09_PT056H.grib2 2026-05-08 08:56 438K
20260508T06Z_MSC_RDPS_WindSpeed_IsbL-0250_RLatLon0.09_PT056H.grib2 2026-05-08 08:56 445K
20260508T06Z_MSC_RDPS_WindSpeed_IsbL-0275_RLatLon0.09_PT056H.grib2 2026-05-08 08:56 464K
20260508T06Z_MSC_RDPS_WindSpeed_IsbL-0300_RLatLon0.09_PT056H.grib2 2026-05-08 08:56 461K
20260508T06Z_MSC_RDPS_WindSpeed_IsbL-0350_RLatLon0.09_PT056H.grib2 2026-05-08 08:56 470K
20260508T06Z_MSC_RDPS_WindSpeed_IsbL-0400_RLatLon0.09_PT056H.grib2 2026-05-08 08:56 475K
20260508T06Z_MSC_RDPS_WindSpeed_IsbL-0450_RLatLon0.09_PT056H.grib2 2026-05-08 08:56 459K
20260508T06Z_MSC_RDPS_WindSpeed_IsbL-0500_RLatLon0.09_PT056H.grib2 2026-05-08 08:56 460K
20260508T06Z_MSC_RDPS_WindSpeed_IsbL-0550_RLatLon0.09_PT056H.grib2 2026-05-08 08:56 576K
20260508T06Z_MSC_RDPS_WindSpeed_IsbL-0600_RLatLon0.09_PT056H.grib2 2026-05-08 08:56 586K
20260508T06Z_MSC_RDPS_WindSpeed_IsbL-0650_RLatLon0.09_PT056H.grib2 2026-05-08 08:56 602K
20260508T06Z_MSC_RDPS_WindSpeed_IsbL-0700_RLatLon0.09_PT056H.grib2 2026-05-08 08:56 626K
20260508T06Z_MSC_RDPS_WindSpeed_IsbL-0750_RLatLon0.09_PT056H.grib2 2026-05-08 08:56 705K
20260508T06Z_MSC_RDPS_WindSpeed_IsbL-0800_RLatLon0.09_PT056H.grib2 2026-05-08 08:56 759K
20260508T06Z_MSC_RDPS_WindSpeed_IsbL-0850_RLatLon0.09_PT056H.grib2 2026-05-08 08:56 810K
20260508T06Z_MSC_RDPS_WindSpeed_IsbL-0875_RLatLon0.09_PT056H.grib2 2026-05-08 08:56 833K
20260508T06Z_MSC_RDPS_WindSpeed_IsbL-0900_RLatLon0.09_PT056H.grib2 2026-05-08 08:56 851K
20260508T06Z_MSC_RDPS_WindSpeed_IsbL-0925_RLatLon0.09_PT056H.grib2 2026-05-08 08:56 864K
20260508T06Z_MSC_RDPS_WindSpeed_IsbL-0950_RLatLon0.09_PT056H.grib2 2026-05-08 08:56 867K
20260508T06Z_MSC_RDPS_WindSpeed_IsbL-0970_RLatLon0.09_PT056H.grib2 2026-05-08 08:56 862K
20260508T06Z_MSC_RDPS_WindSpeed_IsbL-0985_RLatLon0.09_PT056H.grib2 2026-05-08 08:56 858K
20260508T06Z_MSC_RDPS_WindSpeed_IsbL-1000_RLatLon0.09_PT056H.grib2 2026-05-08 08:56 854K
20260508T06Z_MSC_RDPS_WindSpeed_IsbL-1015_RLatLon0.09_PT056H.grib2 2026-05-08 08:56 847K
20260508T06Z_MSC_RDPS_WindU_AGL-10m_RLatLon0.09_PT056H.grib2 2026-05-08 08:56 436K
20260508T06Z_MSC_RDPS_WindU_AGL-120m_RLatLon0.09_PT056H.grib2 2026-05-08 08:56 540K
20260508T06Z_MSC_RDPS_WindU_AGL-40m_RLatLon0.09_PT056H.grib2 2026-05-08 08:56 542K
20260508T06Z_MSC_RDPS_WindU_AGL-80m_RLatLon0.09_PT056H.grib2 2026-05-08 08:56 540K
20260508T06Z_MSC_RDPS_WindU_IsbL-0001_RLatLon0.09_PT056H.grib2 2026-05-08 08:56 245K
20260508T06Z_MSC_RDPS_WindU_IsbL-0005_RLatLon0.09_PT056H.grib2 2026-05-08 08:56 285K
20260508T06Z_MSC_RDPS_WindU_IsbL-0010_RLatLon0.09_PT056H.grib2 2026-05-08 08:56 296K
20260508T06Z_MSC_RDPS_WindU_IsbL-0020_RLatLon0.09_PT056H.grib2 2026-05-08 08:56 353K
20260508T06Z_MSC_RDPS_WindU_IsbL-0030_RLatLon0.09_PT056H.grib2 2026-05-08 08:56 312K
20260508T06Z_MSC_RDPS_WindU_IsbL-0050_RLatLon0.09_PT056H.grib2 2026-05-08 08:56 340K
20260508T06Z_MSC_RDPS_WindU_IsbL-0100_RLatLon0.09_PT056H.grib2 2026-05-08 08:56 429K
20260508T06Z_MSC_RDPS_WindU_IsbL-0150_RLatLon0.09_PT056H.grib2 2026-05-08 08:56 389K
20260508T06Z_MSC_RDPS_WindU_IsbL-0175_RLatLon0.09_PT056H.grib2 2026-05-08 08:56 410K
20260508T06Z_MSC_RDPS_WindU_IsbL-0200_RLatLon0.09_PT056H.grib2 2026-05-08 08:56 423K
20260508T06Z_MSC_RDPS_WindU_IsbL-0225_RLatLon0.09_PT056H.grib2 2026-05-08 08:56 430K
20260508T06Z_MSC_RDPS_WindU_IsbL-0250_RLatLon0.09_PT056H.grib2 2026-05-08 08:56 434K
20260508T06Z_MSC_RDPS_WindU_IsbL-0275_RLatLon0.09_PT056H.grib2 2026-05-08 08:56 453K
20260508T06Z_MSC_RDPS_WindU_IsbL-0300_RLatLon0.09_PT056H.grib2 2026-05-08 08:56 448K
20260508T06Z_MSC_RDPS_WindU_IsbL-0350_RLatLon0.09_PT056H.grib2 2026-05-08 08:56 456K
20260508T06Z_MSC_RDPS_WindU_IsbL-0400_RLatLon0.09_PT056H.grib2 2026-05-08 08:56 462K
20260508T06Z_MSC_RDPS_WindU_IsbL-0450_RLatLon0.09_PT056H.grib2 2026-05-08 08:56 465K
20260508T06Z_MSC_RDPS_WindU_IsbL-0500_RLatLon0.09_PT056H.grib2 2026-05-08 08:56 466K
20260508T06Z_MSC_RDPS_WindU_IsbL-0550_RLatLon0.09_PT056H.grib2 2026-05-08 08:56 467K
20260508T06Z_MSC_RDPS_WindU_IsbL-0600_RLatLon0.09_PT056H.grib2 2026-05-08 08:56 458K
20260508T06Z_MSC_RDPS_WindU_IsbL-0650_RLatLon0.09_PT056H.grib2 2026-05-08 08:56 474K
20260508T06Z_MSC_RDPS_WindU_IsbL-0700_RLatLon0.09_PT056H.grib2 2026-05-08 08:56 616K
20260508T06Z_MSC_RDPS_WindU_IsbL-0750_RLatLon0.09_PT056H.grib2 2026-05-08 08:56 650K
20260508T06Z_MSC_RDPS_WindU_IsbL-0800_RLatLon0.09_PT056H.grib2 2026-05-08 08:56 702K
20260508T06Z_MSC_RDPS_WindU_IsbL-0850_RLatLon0.09_PT056H.grib2 2026-05-08 08:56 759K
20260508T06Z_MSC_RDPS_WindU_IsbL-0875_RLatLon0.09_PT056H.grib2 2026-05-08 08:56 780K
20260508T06Z_MSC_RDPS_WindU_IsbL-0900_RLatLon0.09_PT056H.grib2 2026-05-08 08:56 794K
20260508T06Z_MSC_RDPS_WindU_IsbL-0925_RLatLon0.09_PT056H.grib2 2026-05-08 08:56 803K
20260508T06Z_MSC_RDPS_WindU_IsbL-0950_RLatLon0.09_PT056H.grib2 2026-05-08 08:56 801K
20260508T06Z_MSC_RDPS_WindU_IsbL-0970_RLatLon0.09_PT056H.grib2 2026-05-08 08:56 795K
20260508T06Z_MSC_RDPS_WindU_IsbL-0985_RLatLon0.09_PT056H.grib2 2026-05-08 08:56 792K
20260508T06Z_MSC_RDPS_WindU_IsbL-1000_RLatLon0.09_PT056H.grib2 2026-05-08 08:56 835K
20260508T06Z_MSC_RDPS_WindU_IsbL-1015_RLatLon0.09_PT056H.grib2 2026-05-08 08:56 831K
20260508T06Z_MSC_RDPS_WindV_AGL-10m_RLatLon0.09_PT056H.grib2 2026-05-08 08:56 435K
20260508T06Z_MSC_RDPS_WindV_AGL-120m_RLatLon0.09_PT056H.grib2 2026-05-08 08:56 540K
20260508T06Z_MSC_RDPS_WindV_AGL-40m_RLatLon0.09_PT056H.grib2 2026-05-08 08:56 540K
20260508T06Z_MSC_RDPS_WindV_AGL-80m_RLatLon0.09_PT056H.grib2 2026-05-08 08:56 540K
20260508T06Z_MSC_RDPS_WindV_IsbL-0001_RLatLon0.09_PT056H.grib2 2026-05-08 08:56 246K
20260508T06Z_MSC_RDPS_WindV_IsbL-0005_RLatLon0.09_PT056H.grib2 2026-05-08 08:56 286K
20260508T06Z_MSC_RDPS_WindV_IsbL-0010_RLatLon0.09_PT056H.grib2 2026-05-08 08:56 297K
20260508T06Z_MSC_RDPS_WindV_IsbL-0020_RLatLon0.09_PT056H.grib2 2026-05-08 08:56 316K
20260508T06Z_MSC_RDPS_WindV_IsbL-0030_RLatLon0.09_PT056H.grib2 2026-05-08 08:56 313K
20260508T06Z_MSC_RDPS_WindV_IsbL-0050_RLatLon0.09_PT056H.grib2 2026-05-08 08:56 339K
20260508T06Z_MSC_RDPS_WindV_IsbL-0100_RLatLon0.09_PT056H.grib2 2026-05-08 08:56 426K
20260508T06Z_MSC_RDPS_WindV_IsbL-0150_RLatLon0.09_PT056H.grib2 2026-05-08 08:56 386K
20260508T06Z_MSC_RDPS_WindV_IsbL-0175_RLatLon0.09_PT056H.grib2 2026-05-08 08:56 408K
20260508T06Z_MSC_RDPS_WindV_IsbL-0200_RLatLon0.09_PT056H.grib2 2026-05-08 08:56 326K
20260508T06Z_MSC_RDPS_WindV_IsbL-0225_RLatLon0.09_PT056H.grib2 2026-05-08 08:56 331K
20260508T06Z_MSC_RDPS_WindV_IsbL-0250_RLatLon0.09_PT056H.grib2 2026-05-08 08:56 361K
20260508T06Z_MSC_RDPS_WindV_IsbL-0275_RLatLon0.09_PT056H.grib2 2026-05-08 08:56 375K
20260508T06Z_MSC_RDPS_WindV_IsbL-0300_RLatLon0.09_PT056H.grib2 2026-05-08 08:56 372K
20260508T06Z_MSC_RDPS_WindV_IsbL-0350_RLatLon0.09_PT056H.grib2 2026-05-08 08:56 355K
20260508T06Z_MSC_RDPS_WindV_IsbL-0400_RLatLon0.09_PT056H.grib2 2026-05-08 08:56 358K
20260508T06Z_MSC_RDPS_WindV_IsbL-0450_RLatLon0.09_PT056H.grib2 2026-05-08 08:56 462K
20260508T06Z_MSC_RDPS_WindV_IsbL-0500_RLatLon0.09_PT056H.grib2 2026-05-08 08:56 462K
20260508T06Z_MSC_RDPS_WindV_IsbL-0550_RLatLon0.09_PT056H.grib2 2026-05-08 08:56 463K
20260508T06Z_MSC_RDPS_WindV_IsbL-0600_RLatLon0.09_PT056H.grib2 2026-05-08 08:56 471K
20260508T06Z_MSC_RDPS_WindV_IsbL-0650_RLatLon0.09_PT056H.grib2 2026-05-08 08:56 469K
20260508T06Z_MSC_RDPS_WindV_IsbL-0700_RLatLon0.09_PT056H.grib2 2026-05-08 08:56 491K
20260508T06Z_MSC_RDPS_WindV_IsbL-0750_RLatLon0.09_PT056H.grib2 2026-05-08 08:56 521K
20260508T06Z_MSC_RDPS_WindV_IsbL-0800_RLatLon0.09_PT056H.grib2 2026-05-08 08:56 569K
20260508T06Z_MSC_RDPS_WindV_IsbL-0850_RLatLon0.09_PT056H.grib2 2026-05-08 08:56 619K
20260508T06Z_MSC_RDPS_WindV_IsbL-0875_RLatLon0.09_PT056H.grib2 2026-05-08 08:56 639K
20260508T06Z_MSC_RDPS_WindV_IsbL-0900_RLatLon0.09_PT056H.grib2 2026-05-08 08:56 653K
20260508T06Z_MSC_RDPS_WindV_IsbL-0925_RLatLon0.09_PT056H.grib2 2026-05-08 08:56 661K
20260508T06Z_MSC_RDPS_WindV_IsbL-0950_RLatLon0.09_PT056H.grib2 2026-05-08 08:56 802K
20260508T06Z_MSC_RDPS_WindV_IsbL-0970_RLatLon0.09_PT056H.grib2 2026-05-08 08:56 795K
20260508T06Z_MSC_RDPS_WindV_IsbL-0985_RLatLon0.09_PT056H.grib2 2026-05-08 08:56 791K
20260508T06Z_MSC_RDPS_WindV_IsbL-1000_RLatLon0.09_PT056H.grib2 2026-05-08 08:56 788K
20260508T06Z_MSC_RDPS_WindV_IsbL-1015_RLatLon0.09_PT056H.grib2 2026-05-08 08:56 784K